Tracking 30260 objects as of 15-Feb-2025
HD Live streaming from Space Station
objects crossing your sky now

CZ-3B R/B

Track CZ-3B R/B now!


NORAD ID: 62486
Int'l Code: 2025-002B
Perigee: 164.1 km
Apogee: 36,325.2 km
Inclination: 28.6 °
Period: 640.6 minutes
Semi major axis: 24615 km
RCS: Unknown
Launch date: January 6, 2025
Source: People's Republic of China (PRC)
Launch site: Xichang Space Center, China (XSC)

Note: This is a ROCKET BODY
Your satellite tracking list
Your tracking list is empty




NASA's NSSDC Master Catalog

Two Line Element Set (TLE):
1 62486U 25002B   25045.00971819  .00029428 -36265-7  56657-3 0  9993
2 62486  28.6022  30.1374 7345141 201.9393  94.0872  2.24794580   863
Source of the keplerian elements: AFSPC